GEFSCGP_con_prob3kmehi_306.txt.gz
EHI
0 0 0 0 0 0 0 0 0 0 0 1 3 4 5 5 7 9 8 7 5 6 8 10 9 7 5 4 5 7 9 8 7 7 7 7 6 6 5 4 3 4 5 6
0 0 0 0 0 0 0 0 0 0 0 1 2 2 4 6 8 9 9 8 7 8 10 11 11 8 6 5 6 8 9 9 8 7 7 8 7 5 5 4 4 4 4 5
0 0 0 0 0 0 0 0 0 0 0 1 1 1 3 6 7 9 9 9 10 11 11 12 13 12 9 7 8 9 10 10 7 6 7 8 8 7 6 6 5 4 4 4
0 0 0 0 0 0 0 0 0 0 0 0 0 1 3 4 5 7 8 10 12 12 11 12 16 17 12 9 10 11 11 9 7 6 7 8 8 8 8 7 6 5 4 4
0 0 0 0 0 0 0 0 0 0 0 0 0 1 2 2 3 5 8 11 15 15 13 14 19 20 17 15 14 14 13 11 9 9 9 8 7 7 6 7 6 5 4 4
0 0 0 0 0 0 0 0 0 0 0 0 0 0 0 1 2 3 6 11 18 20 17 17 20 22 23 23 22 19 17 17 14 12 11 10 8 6 6 7 7 5 4 4
0 0 0 0 0 0 0 0 0 0 0 0 0 0 0 0 1 1 4 10 18 21 20 18 20 23 26 29 30 27 24 23 20 16 14 13 11 9 8 8 7 6 5 4
0 0 0 0 0 0 0 0 0 0 0 0 0 0 0 0 0 0 3 9 16 21 21 20 19 22 25 28 31 31 29 27 24 19 15 13 13 11 11 11 10 9 7 4
0 0 0 0 0 0 0 0 0 0 0 0 0 0 0 0 0 1 3 8 15 20 21 21 21 22 22 23 26 29 30 29 27 23 16 12 13 13 12 12 12 11 7 4
0 0 0 0 0 0 0 0 0 0 0 0 0 0 1 2 3 4 6 10 16 21 23 23 23 22 21 21 24 28 30 30 29 25 18 13 13 13 11 11 12 11 8 5
0 0 0 0 0 0 0 0 0 0 0 0 0 0 1 3 4 7 10 14 19 23 24 24 24 23 22 23 26 29 30 29 27 24 18 15 14 13 12 12 12 11 9 7
0 0 0 0 0 0 0 0 0 0 0 0 0 0 0 1 3 6 10 17 20 22 22 21 21 23 24 27 29 29 28 26 24 22 20 17 15 12 13 14 13 11 9 8
0 0 0 0 0 0 0 0 0 0 0 0 0 1 1 2 2 4 9 15 18 17 16 16 17 21 25 28 30 29 27 25 23 22 21 19 15 12 12 13 13 12 11 9
0 0 0 0 0 0 0 0 0 0 0 0 2 4 4 4 5 6 10 15 16 13 10 11 14 18 22 26 29 28 27 26 25 23 22 20 17 14 11 10 11 14 15 14
0 0 0 0 0 0 0 0 0 0 0 1 3 5 5 6 8 9 12 16 17 13 9 9 12 15 18 23 27 29 28 27 26 25 24 22 19 16 13 11 12 15 19 20
0 0 0 0 0 0 0 0 1 1 1 2 4 4 4 6 10 12 15 18 18 14 11 11 12 15 18 22 28 32 32 29 26 25 23 22 21 19 17 15 14 16 19 22
0 0 0 0 0 0 0 0 1 2 2 3 4 4 4 7 11 13 16 19 19 18 17 16 16 18 20 23 28 33 34 31 27 25 23 22 23 22 20 17 16 17 19 21
0 0 0 0 0 0 0 0 1 2 2 3 4 5 5 8 11 13 15 17 19 20 19 17 16 17 19 22 26 29 30 29 27 25 23 23 24 23 21 18 17 18 19 21
0 0 0 0 0 0 0 1 2 2 2 2 4 5 6 9 11 11 10 12 14 15 15 14 13 13 14 16 21 25 26 27 28 26 24 24 25 24 22 20 18 18 18 19
0 0 0 0 0 0 0 1 2 2 1 1 2 3 5 8 9 7 6 7 8 8 9 10 12 12 11 12 16 21 25 27 28 27 26 24 23 22 21 20 18 17 16 15
0 0 0 0 0 0 0 0 1 1 0 0 1 2 3 4 4 4 5 6 5 4 5 8 11 13 13 14 16 18 22 25 26 26 24 22 21 19 18 18 17 16 15 14
0 0 0 0 0 0 0 0 0 0 0 0 0 2 3 2 3 4 5 6 5 4 4 6 8 11 15 16 15 15 16 19 21 21 20 20 21 19 18 18 19 19 17 16
0 0 1 1 1 1 1 0 0 0 0 0 0 2 3 3 3 3 4 5 5 5 5 5 6 7 10 12 12 10 9 11 14 15 17 19 20 19 19 19 21 21 21 20
0 1 2 2 2 3 3 2 2 2 1 1 1 2 4 4 3 3 3 3 3 5 6 5 5 5 6 7 8 8 7 7 9 12 16 18 18 18 18 19 19 20 20 20
0 1 3 3 3 4 5 5 5 5 4 4 3 4 6 6 4 3 3 3 3 5 8 8 7 6 5 5 7 8 8 7 8 12 16 17 17 17 16 15 14 14 14 15
1 2 3 3 3 4 6 6 6 6 6 6 5 7 8 7 5 4 3 3 5 7 10 10 9 8 6 6 7 8 9 8 9 12 15 16 17 16 14 11 9 9 9 9

GEFSCGP_con_prob3kmehi_312.txt.gz
EHI
0 0 0 0 0 0 0 0 0 0 0 0 0 0 0 0 0 0 0 0 0 0 0 0 1 1 1 1 2 2 1 1 2 4 5 5 4 3 2 2 3 3 2 2
0 0 0 0 0 0 0 0 0 0 0 0 0 0 0 0 0 0 0 0 0 0 0 0 1 2 2 2 2 2 1 1 2 3 4 4 3 2 2 2 2 2 2 2
0 0 0 0 0 0 0 0 0 0 0 0 0 0 0 0 0 0 0 0 0 0 0 0 1 1 2 2 2 2 1 1 1 1 2 2 2 1 1 1 0 0 1 2
0 0 0 0 0 0 0 0 0 0 0 0 0 0 0 0 0 1 1 1 0 0 0 0 0 0 1 1 1 1 1 0 0 0 1 1 1 0 0 0 0 0 0 1
0 0 0 0 0 0 0 0 0 0 0 0 0 0 0 0 0 1 2 2 1 1 1 1 1 1 0 0 0 0 0 0 0 0 0 0 0 0 0 0 0 0 0 0
0 0 0 0 0 0 0 0 0 0 0 0 0 0 0 0 0 0 1 2 2 2 2 3 3 2 0 0 0 0 0 0 0 0 0 0 0 0 0 0 0 0 0 0
0 0 0 0 0 0 0 0 0 0 0 0 0 0 0 0 0 0 0 1 2 3 3 5 6 5 3 1 1 0 0 0 0 0 0 0 0 0 0 0 1 1 1 1
0 0 0 0 0 0 0 0 0 0 0 0 0 0 0 0 1 1 0 1 3 4 5 7 8 7 6 3 2 1 0 0 0 1 1 1 0 0 0 1 2 2 2 2
0 0 0 0 0 0 0 0 0 0 0 0 0 0 0 1 2 2 1 1 4 6 6 7 6 6 6 4 3 1 0 0 0 1 2 2 1 1 2 2 4 4 3 2
0 0 0 0 0 0 0 0 0 0 0 0 0 0 0 1 2 2 1 1 4 6 6 5 5 5 5 4 3 2 1 1 1 2 3 4 3 4 5 6 6 6 4 2
0 0 0 0 0 0 0 0 0 0 0 0 0 0 0 0 1 1 0 1 3 4 5 6 6 6 5 5 4 3 3 3 3 3 4 5 5 5 7 7 8 7 6 4
0 0 0 0 0 0 0 0 0 0 0 0 0 0 0 0 0 0 1 1 1 3 5 7 8 7 6 6 4 2 3 5 5 6 8 9 8 7 7 7 8 7 7 6
0 0 0 0 0 0 0 0 0 0 0 0 0 0 0 0 0 1 2 2 2 3 4 7 8 7 6 6 5 3 3 6 8 11 13 13 12 11 9 9 9 8 6 5
0 0 0 0 0 0 0 0 0 0 0 0 0 0 0 1 1 2 4 4 4 3 4 5 6 6 5 5 5 4 4 8 12 14 16 16 15 13 11 10 10 9 7 6
0 0 0 0 0 0 0 0 0 0 0 0 0 0 0 0 1 2 3 4 4 3 3 3 4 5 5 4 4 4 6 10 14 16 16 15 14 13 12 10 10 9 9 8
0 0 0 0 0 0 0 0 0 0 0 0 0 0 0 0 0 1 2 3 3 3 3 3 4 5 4 3 4 5 8 12 15 16 15 14 14 14 13 11 11 10 9 9
0 0 0 0 0 0 0 0 0 0 1 1 0 0 0 0 0 0 1 2 4 4 4 3 3 4 3 2 3 6 9 12 15 16 15 14 14 14 14 14 13 11 9 9
0 0 0 0 0 0 0 0 0 0 1 1 0 0 0 0 0 0 1 2 3 3 4 4 3 2 1 1 2 6 8 10 12 14 14 13 13 14 14 15 14 12 10 8
0 0 0 0 0 0 0 0 0 1 1 0 0 0 1 1 0 1 2 2 1 2 4 5 4 2 2 2 4 6 7 7 8 9 9 10 11 12 12 13 12 11 9 7
0 0 0 0 0 0 0 0 0 1 0 0 0 1 2 1 0 1 1 1 1 1 3 5 5 4 4 5 6 6 7 6 5 4 4 5 7 10 11 11 10 9 7 6
0 0 0 0 0 0 0 0 0 0 0 0 0 2 2 1 0 0 1 1 1 1 2 5 5 5 5 5 6 5 5 6 4 2 1 1 3 6 9 10 9 8 7 7
0 0 0 0 0 0 0 0 0 0 0 0 0 1 1 1 0 0 1 2 2 2 2 3 3 3 3 3 3 3 2 3 3 2 1 0 1 2 4 6 8 9 9 9
0 0 0 0 0 0 0 0 0 0 0 0 0 0 0 0 0 0 1 2 3 2 1 1 1 1 1 1 1 1 0 1 2 2 1 0 0 0 1 3 5 8 10 12
0 0 0 0 0 0 0 0 0 0 0 0 0 0 0 0 0 0 0 2 2 2 0 0 0 0 0 0 0 0 0 0 1 1 1 1 1 1 1 2 3 5 9 12
0 0 0 0 0 0 0 0 0 0 0 1 1 1 0 1 1 0 1 2 3 2 1 1 1 0 0 0 0 0 0 0 0 0 1 2 3 2 2 1 1 2 4 6
0 0 0 0 0 0 0 0 0 0 1 2 2 1 1 2 2 1 2 3 3 3 2 2 2 1 0 0 0 0 0 0 0 1 2 4 4 3 1 0 0 0 1 2

GEFSCGP_con_prob3kmehi_318.txt.gz
EHI
0 0 0 0 0 0 0 0 0 0 0 0 1 1 1 2 2 1 1 1 0 1 2 2 2 2 1 2 5 7 7 6 5 5 5 5 5 4 2 1 2 3 3 3
0 0 0 0 0 0 0 0 0 0 0 0 1 1 1 1 1 0 0 0 1 3 4 4 5 4 2 3 5 7 7 5 3 4 5 6 7 6 3 2 2 2 2 2
0 0 0 0 0 0 0 0 0 0 0 0 1 1 1 1 0 0 0 0 1 4 6 7 7 7 5 4 5 6 6 4 3 4 5 7 9 7 4 2 2 2 2 2
0 0 0 0 0 0 0 0 0 0 0 0 0 1 2 2 1 0 0 0 1 3 6 7 8 8 7 5 4 6 7 7 6 6 6 7 8 6 3 2 3 4 4 3
0 0 0 0 0 0 0 0 0 0 0 0 0 0 2 3 3 2 0 0 1 3 5 7 8 9 8 6 5 7 9 10 10 9 7 7 6 4 2 2 3 4 3 3
0 0 0 0 0 0 0 0 0 0 0 0 0 0 1 3 4 3 1 1 2 4 6 8 10 11 11 9 8 8 10 11 12 11 9 7 5 4 3 3 3 3 3 3
0 0 0 0 0 0 0 0 0 0 0 0 0 1 2 3 3 3 2 1 3 5 7 10 13 16 15 12 11 11 12 14 14 13 11 9 6 5 4 3 2 3 3 3
0 0 0 0 0 0 0 0 0 0 0 0 0 1 2 1 1 2 3 2 4 7 9 11 15 17 17 16 16 16 16 17 16 15 14 12 9 6 4 2 2 4 5 4
0 0 0 0 0 0 0 0 0 0 0 0 0 1 2 2 1 2 3 4 6 10 12 14 16 18 17 18 20 19 18 18 17 16 14 13 11 9 6 4 5 7 8 7
0 0 0 0 0 0 0 0 0 0 0 0 0 1 2 3 2 3 5 6 8 11 15 17 19 19 17 16 16 15 15 17 17 15 12 11 12 12 10 8 10 12 12 11
0 0 0 0 0 0 0 0 0 0 0 0 0 0 1 2 3 4 6 8 9 10 13 18 20 18 14 12 10 9 11 14 14 13 11 10 11 13 12 11 13 15 14 13
0 0 0 0 0 0 0 0 0 0 0 0 0 0 1 1 3 5 7 8 9 9 11 16 18 17 15 12 9 9 9 11 12 13 12 11 12 14 14 14 15 14 13 12
0 0 0 0 0 0 0 0 0 0 0 0 0 0 1 1 3 6 7 8 8 8 10 13 17 18 17 16 15 13 11 11 12 15 15 15 15 16 17 16 14 13 12 11
0 0 0 0 0 0 0 0 0 0 0 0 0 0 1 2 5 7 8 8 8 8 10 14 17 18 17 17 19 19 16 15 16 18 19 20 21 20 19 15 12 12 11 11
0 0 0 0 0 0 0 0 0 0 0 0 0 1 2 4 6 9 10 9 9 11 12 15 17 17 15 14 17 21 21 20 21 22 24 25 25 24 21 16 12 11 11 11
0 0 0 0 0 0 0 0 0 0 0 0 0 1 3 6 8 11 12 12 13 14 15 15 16 16 14 13 16 21 24 25 26 27 28 27 27 24 20 17 13 12 12 12
0 0 0 0 0 0 0 0 0 0 0 0 1 3 5 7 8 9 10 12 15 17 16 15 15 16 15 16 18 21 25 28 30 30 30 30 28 24 21 18 17 17 17 17
0 0 0 0 0 0 0 0 0 0 0 1 2 3 4 4 4 4 6 9 13 16 16 14 15 16 18 19 22 23 25 29 32 32 31 30 30 27 23 21 22 22 22 22
0 0 0 0 0 0 0 0 0 0 0 1 2 2 2 1 1 1 4 9 13 17 16 14 14 17 20 22 23 25 28 29 28 27 27 27 28 27 24 23 22 21 21 21
0 0 0 0 0 0 0 0 0 0 1 2 2 2 2 1 1 3 7 11 16 19 20 17 16 17 19 19 22 26 28 26 22 20 22 23 23 23 22 20 20 18 18 18
0 0 0 0 0 0 0 0 0 0 2 3 3 2 2 2 4 7 11 13 16 20 21 21 19 18 16 15 18 22 22 19 17 17 19 21 20 18 16 15 15 14 14 14
0 0 0 0 0 0 0 0 0 1 3 3 2 1 2 5 8 11 13 14 15 17 20 22 21 19 15 13 13 14 14 13 13 15 18 18 16 12 11 11 11 9 9 9
0 0 0 0 0 0 0 0 0 1 2 2 1 2 4 7 9 11 14 16 15 16 19 21 19 17 14 11 9 8 8 9 11 15 17 16 12 9 8 9 9 7 6 6
0 0 0 0 0 0 0 0 0 1 1 1 2 4 5 7 9 12 15 17 17 18 19 19 16 13 11 9 8 8 8 10 12 15 17 16 13 10 9 9 8 7 6 5
0 0 0 0 0 0 0 0 0 1 1 0 1 4 6 7 9 12 14 17 18 19 18 17 15 12 10 10 9 9 10 12 14 15 16 16 14 12 10 9 8 6 6 5
0 0 0 0 0 0 1 1 1 0 0 0 1 4 6 7 9 11 13 16 19 19 17 17 15 13 12 11 11 10 11 12 14 15 14 14 14 13 11 9 7 5 4 4

GEFSCGP_con_prob3kmehi_324.txt.gz
EHI
0 0 0 0 0 0 0 0 0 1 1 1 2 1 1 0 1 2 4 7 11 16 19 19 17 20 26 29 29 25 21 20 18 16 17 15 11 8 9 11 12 12 10 9
0 0 0 0 0 0 0 0 0 0 0 1 1 1 1 0 1 2 3 5 10 17 23 23 20 22 29 35 33 27 24 22 19 17 16 14 11 9 9 12 13 11 8 8
0 0 0 0 0 0 0 0 0 0 0 0 1 1 2 2 2 2 1 3 8 16 24 27 25 25 31 37 36 32 32 30 22 16 13 11 11 10 9 14 17 14 10 8
0 0 0 0 0 0 0 0 0 0 0 0 1 2 4 5 6 3 2 3 6 13 23 31 32 29 30 34 38 41 44 39 27 17 12 10 11 10 9 14 19 18 14 12
0 0 0 0 0 0 0 0 0 0 0 0 1 2 4 7 7 5 4 5 8 12 21 31 36 35 30 30 37 46 51 47 34 21 14 12 12 10 9 12 18 18 17 18
0 0 0 0 0 0 0 0 0 0 0 0 0 2 4 7 7 7 8 10 10 11 18 29 37 38 35 33 37 47 54 52 41 27 17 15 16 14 12 12 15 16 18 22
0 0 0 0 0 0 0 0 0 0 0 0 0 3 6 8 8 9 12 13 12 12 17 27 35 38 40 40 42 51 59 57 46 34 24 20 19 18 16 14 14 15 18 22
0 0 0 0 0 0 0 0 0 0 0 0 2 6 8 9 9 10 11 12 12 13 18 27 33 36 40 42 45 52 61 60 51 42 34 26 21 19 19 18 17 18 21 23
0 0 0 0 0 0 0 0 0 0 0 0 3 9 11 10 9 9 8 8 9 11 16 23 29 33 36 40 44 51 59 60 53 45 38 30 25 23 23 24 23 24 26 25
0 0 0 0 0 0 0 0 0 0 0 0 2 8 11 11 9 8 8 7 8 10 12 16 23 29 32 36 41 48 54 54 49 42 36 31 30 29 27 28 28 28 28 27
0 0 0 0 0 0 0 0 0 0 0 0 1 5 9 10 8 8 9 10 11 12 12 12 18 26 29 31 36 42 46 46 43 39 34 32 33 33 30 29 31 32 31 29
0 0 0 0 0 0 0 0 0 0 0 0 1 4 6 7 6 6 9 13 14 15 14 15 19 25 28 28 32 36 39 39 39 38 35 32 33 34 32 32 34 35 33 31
0 0 0 0 0 0 0 0 0 0 0 0 0 3 4 5 4 7 11 15 17 18 18 19 22 25 27 29 32 34 33 32 34 36 36 34 35 35 36 37 37 36 33 31
0 0 0 0 0 0 0 0 0 0 0 0 0 2 4 4 4 9 15 18 20 22 23 23 24 26 27 30 32 32 29 27 32 39 40 39 40 40 40 40 39 36 33 30
0 0 0 0 0 0 0 0 0 0 0 0 0 2 4 4 6 11 17 21 24 26 28 29 31 30 29 31 32 31 30 31 35 42 45 45 46 46 46 45 41 36 32 29
0 0 0 0 0 0 0 0 0 0 0 0 0 2 5 6 8 14 19 21 24 28 31 34 37 38 36 34 32 33 37 40 42 44 46 49 50 50 49 47 41 35 32 32
0 0 0 0 0 0 0 0 0 0 0 0 2 5 8 9 11 15 19 20 21 27 32 34 37 38 38 38 36 37 42 48 48 46 46 49 51 51 49 44 39 34 34 35
1 1 0 0 0 0 0 0 0 0 0 1 3 8 12 11 11 14 17 19 22 26 31 32 32 32 34 36 36 37 42 47 48 47 45 45 48 48 46 42 39 37 36 37
1 1 0 0 0 0 0 0 0 0 0 1 4 9 11 11 10 12 16 20 23 26 27 28 27 26 30 34 35 38 41 42 43 43 42 42 43 43 42 41 41 40 40 39
1 1 1 0 0 0 0 0 0 0 1 4 7 9 9 8 9 11 15 19 21 21 21 23 24 26 31 34 35 37 39 39 38 38 38 40 39 39 39 40 41 41 40 40
1 1 1 0 0 0 1 1 2 4 6 8 10 10 10 9 9 10 13 15 15 15 17 20 25 31 34 35 36 37 37 36 36 35 36 37 36 34 35 37 38 38 37 36
1 1 1 1 1 2 3 3 5 8 11 11 11 12 13 11 10 11 13 13 12 13 15 19 27 33 36 37 37 36 36 36 34 32 33 34 31 29 31 34 35 34 31 28
1 0 1 2 2 3 5 5 5 8 8 8 10 12 13 13 11 12 14 14 13 13 16 20 25 31 34 36 36 37 37 36 32 29 29 30 28 28 30 31 30 28 24 20
0 0 1 1 2 2 3 3 4 4 4 4 7 10 11 12 12 12 15 17 16 17 20 22 24 28 33 34 33 33 35 34 30 27 26 26 25 26 30 29 24 22 20 17
0 0 1 2 1 1 2 2 3 4 3 3 4 6 9 11 11 12 15 19 20 21 23 24 23 26 31 31 28 28 29 29 26 24 22 21 21 23 26 26 21 17 16 14
0 1 2 3 2 1 2 3 4 4 5 4 3 4 8 11 11 11 15 20 22 22 24 24 23 25 29 28 25 26 27 26 23 21 19 18 18 21 24 24 20 15 11 11

GEFSCGP_con_prob3kmehi_330.txt.gz
EHI
0 0 0 0 0 0 0 0 0 0 0 1 3 3 1 1 1 2 4 7 9 12 18 23 25 23 18 14 13 13 13 11 8 6 4 1 0 0 0 1 1 1 0 0
0 0 0 0 0 0 0 0 0 0 0 1 3 2 1 1 1 2 5 9 12 15 19 25 27 25 20 16 15 16 15 12 8 6 4 2 0 0 1 2 2 2 1 1
0 0 0 0 0 0 0 0 0 0 0 0 1 1 0 0 0 2 5 9 13 18 23 28 30 27 22 17 16 19 18 14 9 6 4 2 1 1 1 2 2 2 3 2
0 0 0 0 0 0 0 0 0 0 0 0 0 0 0 0 1 2 5 9 11 16 23 28 29 27 22 16 15 18 19 16 13 10 7 3 2 2 3 3 3 3 4 4
0 0 0 0 0 0 0 0 0 0 0 0 0 1 1 1 2 4 7 9 10 14 20 25 26 25 22 19 17 18 20 19 17 15 10 5 2 3 4 3 4 5 5 4
0 0 0 0 0 0 0 0 0 0 0 0 0 2 3 3 3 4 7 9 11 14 18 20 21 22 22 23 24 23 23 22 19 17 13 7 3 4 4 3 3 4 3 2
0 0 0 0 0 0 0 0 0 0 0 0 0 1 3 3 3 4 6 8 11 16 19 19 19 19 20 23 25 27 27 25 21 17 14 9 6 4 4 2 1 1 1 0
0 0 0 0 0 0 0 0 0 0 0 0 0 1 2 3 3 4 5 7 11 15 18 18 16 16 18 20 22 25 27 26 23 19 15 12 9 6 3 2 1 0 0 0
0 0 0 0 0 0 0 0 0 0 0 0 0 0 1 2 4 5 7 8 10 12 15 15 13 14 18 20 20 23 25 26 24 21 17 13 10 8 5 3 2 1 1 0
0 0 0 0 0 0 0 0 0 0 0 0 0 0 0 2 4 5 7 8 8 9 12 13 12 13 16 18 21 24 26 25 24 21 17 13 10 9 7 6 5 4 2 1
0 0 0 0 0 0 0 0 0 0 0 0 0 0 1 2 3 6 7 6 6 8 10 11 10 11 13 15 20 25 26 24 22 21 18 14 10 9 9 9 8 6 4 3
0 0 0 0 0 0 0 0 0 0 0 0 0 1 2 3 4 8 10 9 8 8 8 9 9 10 10 12 17 23 24 23 21 20 19 17 12 10 11 12 10 7 4 4
0 0 0 0 0 0 0 0 0 0 0 0 0 1 3 5 7 10 10 9 9 8 7 8 9 10 10 11 15 19 21 20 20 20 20 18 13 11 12 13 12 9 7 6
0 0 0 0 0 0 0 0 0 0 0 0 0 1 2 5 8 9 7 6 6 6 6 6 7 9 10 12 15 18 19 18 19 20 20 18 15 12 12 12 11 10 10 10
0 0 0 0 0 0 0 0 0 0 0 0 1 2 2 3 6 6 5 4 3 4 4 5 4 5 9 13 16 17 17 16 17 19 20 20 18 16 13 13 13 12 12 13
0 0 0 0 0 0 0 0 0 0 0 1 2 2 2 4 7 6 6 6 5 5 6 5 3 4 8 13 15 15 14 14 16 19 21 20 19 18 16 17 17 16 14 15
0 0 0 0 0 0 0 0 0 0 0 1 2 3 5 7 8 6 6 7 7 5 5 5 5 7 10 12 15 15 14 16 18 21 21 20 19 17 17 18 20 20 18 15
0 0 0 0 0 0 0 0 0 0 0 2 4 6 7 7 5 4 3 4 4 4 4 4 8 12 15 16 17 19 19 18 21 23 22 21 19 16 16 18 20 20 19 16
0 0 0 0 0 0 0 0 0 0 1 3 5 5 4 3 3 1 1 1 2 4 5 7 11 16 20 21 23 24 22 19 20 21 20 19 18 17 17 19 19 20 20 18
0 0 0 0 0 0 0 0 0 0 1 3 4 2 1 1 2 2 1 2 4 6 9 11 13 17 21 23 24 25 21 18 17 16 16 16 17 18 18 19 19 20 20 19
0 0 0 0 0 0 0 0 0 0 0 1 1 1 1 1 2 3 4 5 6 8 11 13 14 16 17 19 21 21 18 16 15 14 13 13 15 17 17 18 18 19 19 18
0 0 0 0 0 0 0 0 0 0 0 1 2 2 2 2 2 4 6 6 7 9 12 14 14 14 12 13 16 16 15 14 14 13 11 12 15 16 16 16 17 18 17 15
0 0 0 0 0 0 0 0 0 0 1 2 3 3 3 3 3 5 6 7 7 9 11 13 13 11 9 10 12 12 11 11 11 11 11 12 13 14 14 14 15 15 14 13
0 0 0 0 0 0 0 0 0 0 1 2 2 2 2 2 4 6 6 7 8 9 11 11 10 9 8 9 9 9 7 7 8 9 11 13 13 12 12 12 12 11 11 11
0 0 0 0 0 0 0 0 0 0 0 1 1 1 1 2 4 5 6 6 7 9 11 11 9 9 9 8 7 5 3 3 6 9 11 13 13 13 12 11 10 9 9 8
0 0 0 0 0 0 0 0 0 0 0 1 2 2 1 1 3 4 4 4 5 8 11 11 10 10 9 7 5 4 2 2 4 8 11 13 14 13 13 12 10 9 7 5

GEFSCGP_con_prob3kmehi_336.txt.gz
EHI
0 0 0 0 0 0 0 0 0 0 0 0 0 0 0 0 0 1 1 1 3 4 4 5 6 5 4 5 6 6 6 6 7 7 4 1 0 0 0 0 0 0 0 0
0 0 0 0 0 0 0 0 0 0 0 0 0 0 0 0 0 1 2 2 3 5 7 7 7 6 5 5 6 5 5 5 7 7 3 1 0 0 0 0 0 0 0 0
0 0 0 0 0 0 0 0 0 0 0 0 0 0 0 0 1 1 2 2 4 7 9 9 7 6 6 6 6 5 5 5 6 5 3 1 1 1 1 0 0 0 0 0
0 0 0 0 0 0 0 0 0 0 0 0 0 0 0 1 1 1 1 2 4 6 8 8 6 5 5 6 6 6 6 6 5 4 3 2 2 2 1 0 0 0 0 0
0 0 0 0 0 0 0 0 0 0 0 0 0 0 0 1 2 1 1 1 2 4 5 5 4 4 4 4 5 7 6 4 4 4 4 3 2 1 1 0 0 0 0 0
0 0 0 0 0 0 0 0 0 0 0 0 0 0 0 0 1 1 0 0 1 3 3 3 3 3 3 4 6 6 5 4 3 4 5 4 2 1 0 1 1 0 0 0
0 0 0 0 0 0 0 0 0 0 0 0 0 0 0 0 0 0 0 1 1 3 3 2 2 3 4 5 6 6 5 4 3 3 3 4 3 2 1 2 2 1 0 0
0 0 0 0 0 0 0 0 0 0 0 0 0 0 0 0 0 0 1 2 3 5 4 2 1 2 4 6 7 6 6 5 3 2 2 4 4 4 3 3 3 2 0 0
0 0 0 0 0 0 0 0 0 0 0 0 0 0 0 0 0 0 2 3 5 6 6 3 1 2 4 6 7 7 7 6 4 3 4 6 6 6 5 4 3 2 1 1
0 0 0 0 0 0 0 0 0 0 0 0 0 0 0 0 0 0 1 2 3 5 6 4 2 2 3 5 6 7 7 6 4 4 5 7 8 7 6 5 4 3 2 2
0 0 0 0 0 0 0 0 0 0 0 0 0 0 0 0 0 0 1 1 2 3 3 2 2 2 2 3 4 4 5 5 4 3 5 7 7 6 5 4 4 2 2 2
0 0 0 0 0 0 0 0 0 0 0 0 0 0 0 0 0 0 1 2 3 3 3 2 2 3 2 2 3 3 4 5 4 4 5 5 5 4 4 3 2 1 0 1
0 0 0 0 0 0 0 0 0 0 0 0 0 1 1 1 0 0 1 3 4 4 4 4 3 3 2 1 3 3 3 4 5 6 5 5 4 3 3 1 1 0 1 1
0 0 0 0 0 0 0 0 0 0 0 0 0 1 1 1 0 0 1 2 3 3 3 3 2 2 1 1 2 3 3 4 6 6 6 6 5 4 3 1 0 0 1 2
0 0 0 0 0 0 0 0 0 0 0 0 0 1 1 0 1 1 1 1 1 1 2 2 3 3 2 2 3 3 3 4 6 6 6 6 6 4 3 2 1 0 1 1
0 0 0 0 0 0 0 0 0 0 0 0 0 0 0 0 1 1 1 1 1 1 3 4 4 4 3 2 2 3 3 4 6 6 6 6 6 4 3 3 1 0 1 1
0 0 0 0 0 0 0 0 0 0 0 0 0 0 0 0 1 1 1 2 3 3 4 5 4 3 2 1 1 2 3 4 6 6 6 6 6 5 4 4 3 2 2 2
0 0 0 0 0 0 0 0 0 0 0 0 0 0 1 1 2 2 1 3 5 5 5 4 4 3 1 0 0 2 3 5 5 5 5 6 6 6 6 6 6 4 3 3
0 0 0 0 0 0 0 0 0 0 0 0 0 1 2 3 3 2 1 3 4 5 5 5 5 4 2 1 1 2 4 4 4 4 5 6 7 8 8 8 7 5 4 3
0 0 0 0 0 0 0 0 0 0 0 0 0 1 2 2 2 1 1 2 3 4 5 6 6 5 3 2 3 4 4 4 5 5 4 5 6 7 7 7 6 5 3 3
0 0 0 0 0 0 0 0 0 0 0 0 0 1 1 1 1 0 0 2 3 4 5 8 8 5 4 3 3 4 5 6 6 6 4 4 6 6 6 6 5 4 3 3
0 0 0 0 0 0 0 0 0 0 0 0 0 0 0 0 0 0 0 2 3 3 4 7 7 5 5 4 4 5 6 7 7 5 4 4 5 6 6 6 6 5 5 5
0 0 0 0 0 0 0 0 0 0 0 0 0 0 0 0 0 0 0 1 2 2 2 4 5 5 6 7 6 6 6 6 5 4 3 3 4 6 6 7 7 7 8 8
0 0 0 0 0 0 0 0 0 0 0 0 0 0 0 0 0 0 0 0 1 1 1 2 4 5 7 8 8 7 6 5 4 3 3 3 4 5 6 6 7 8 9 9
0 0 0 0 0 0 0 0 0 0 0 0 0 0 0 0 1 1 1 0 0 1 2 3 4 4 5 7 8 7 6 4 3 3 4 4 4 4 4 4 5 6 7 7
0 0 0 0 0 0 0 0 0 0 0 0 0 0 0 1 2 2 1 0 0 1 2 3 3 3 4 6 7 6 5 4 3 4 5 4 4 3 3 3 3 3 4 5

GEFSCGP_con_prob3kmehi_342.txt.gz
EHI
0 0 0 0 0 0 0 0 0 0 0 0 0 1 2 4 5 5 4 4 4 4 2 2 2 4 5 5 6 6 7 7 6 6 5 4 4 2 1 0 0 0 0 0
0 0 0 0 0 0 0 0 0 0 0 0 0 0 1 2 3 5 6 6 5 5 5 6 7 6 6 7 7 7 7 7 6 6 6 6 5 3 1 0 0 0 0 0
0 0 0 0 0 0 0 0 0 0 0 0 0 0 1 1 2 3 5 6 6 5 7 11 12 10 8 8 8 8 9 8 8 8 8 7 6 4 2 2 1 1 1 0
0 0 0 0 0 0 0 0 0 0 0 0 0 0 1 1 1 1 3 4 4 4 7 12 13 11 9 8 8 10 11 12 11 12 11 9 6 5 5 4 3 2 1 1
0 0 0 0 0 0 0 0 0 0 0 0 0 0 1 2 3 2 2 3 3 3 6 10 12 12 9 7 8 10 13 14 14 15 15 12 7 4 4 5 5 4 3 2
0 0 0 0 0 0 0 0 0 0 0 0 0 0 2 4 6 6 6 6 6 5 8 12 14 13 11 8 7 9 13 16 15 15 16 15 11 7 6 7 9 9 7 6
0 0 0 0 0 0 0 0 0 0 0 0 0 1 4 7 9 9 11 11 9 9 11 14 15 14 11 9 7 8 12 14 14 14 14 16 15 11 10 10 12 12 10 8
0 0 0 0 0 0 0 0 0 0 0 0 0 2 5 8 9 11 13 14 13 13 14 15 16 14 10 7 6 8 9 12 14 15 16 17 17 14 13 13 14 13 11 9
0 0 0 0 0 0 0 0 0 0 0 0 1 3 5 7 9 11 13 15 16 15 15 16 15 13 8 5 6 7 9 11 15 17 17 18 18 16 16 17 17 15 13 11
0 0 0 0 0 0 0 0 0 0 0 0 1 3 4 6 8 12 15 16 16 16 15 16 16 12 8 5 5 7 9 11 14 15 15 16 18 18 18 18 17 16 16 16
0 0 0 0 0 0 0 0 0 0 0 0 0 1 2 4 8 11 15 17 15 13 13 15 15 13 10 6 5 7 9 11 13 14 15 16 16 16 15 14 14 15 18 20
0 0 0 0 0 0 0 0 0 0 0 0 0 0 1 4 6 9 12 14 13 11 12 13 15 16 14 11 10 11 12 13 15 16 16 16 15 14 12 12 12 15 19 22
0 0 0 0 0 0 0 0 0 0 0 0 0 0 1 2 4 6 8 11 12 13 15 17 18 19 20 20 18 15 14 15 17 17 17 16 15 14 14 15 16 17 20 22
0 0 0 0 0 0 0 0 0 0 0 0 0 0 1 2 3 4 6 10 15 19 21 23 22 23 25 25 22 17 14 14 16 17 16 15 14 14 16 18 19 20 20 19
0 0 0 0 0 0 0 0 0 0 0 0 0 1 2 3 4 5 8 13 18 21 23 24 23 23 24 24 21 17 14 14 15 15 14 15 15 16 17 19 19 20 20 18
0 0 0 0 0 0 0 0 0 0 0 0 0 2 3 4 5 8 12 16 19 20 20 19 19 20 21 21 19 18 16 16 16 15 13 15 17 18 18 18 19 20 20 19
0 0 0 0 0 0 0 0 0 0 0 0 1 3 4 5 6 9 14 16 17 17 16 15 15 17 17 16 15 16 16 16 17 17 15 15 16 17 18 18 18 18 17 17
0 0 0 0 0 0 0 0 0 0 1 2 4 5 6 6 6 8 12 14 14 15 14 13 13 13 11 10 11 13 15 15 16 17 16 15 15 15 16 17 17 16 13 12
0 0 0 0 0 0 0 0 0 1 2 3 5 7 7 6 6 7 10 13 13 13 12 10 10 9 8 7 10 13 14 14 15 15 15 15 15 15 16 16 16 14 12 12
0 0 0 0 0 0 0 0 0 1 2 3 4 6 6 6 5 6 9 11 12 11 9 8 8 8 8 10 13 14 13 13 14 15 15 15 15 14 15 15 15 14 14 14
0 0 0 0 0 0 0 0 0 0 1 2 4 5 5 5 4 5 8 11 11 10 8 8 8 8 9 13 16 15 13 12 14 16 16 16 14 12 12 13 14 15 14 14
0 0 0 0 0 0 0 0 0 1 1 2 3 3 3 2 2 5 10 12 11 10 9 10 10 8 10 15 18 18 16 14 15 16 16 15 13 10 10 11 12 13 13 12
0 0 0 0 0 0 1 1 1 1 2 3 2 1 1 1 2 6 10 11 12 12 11 10 9 9 11 16 20 20 20 18 17 16 14 12 10 8 8 9 10 11 11 10
0 0 0 0 0 0 1 1 1 1 1 1 1 0 0 1 3 7 10 11 12 13 12 9 9 10 12 16 18 19 20 19 17 15 13 9 8 7 7 8 8 8 9 9
0 0 0 0 0 0 0 0 1 1 0 0 0 0 1 2 4 7 9 11 12 13 12 9 8 9 12 14 15 15 15 15 14 13 11 8 7 8 8 7 7 6 7 7
0 0 0 0 0 0 0 0 0 1 0 0 0 1 2 3 4 6 9 11 12 13 12 8 7 9 11 13 13 11 11 11 11 10 8 7 7 8 8 7 6 5 5 5

GEFSCGP_con_prob3kmehi_348.txt.gz
EHI
0 0 0 0 0 0 0 0 0 1 2 3 3 3 2 3 5 8 11 16 23 27 27 23 17 16 24 35 46 46 40 37 31 22 18 17 15 14 13 14 17 19 18 16
0 0 0 0 0 0 0 0 0 1 2 3 3 4 4 4 6 10 14 19 24 25 26 27 23 20 25 34 42 44 41 38 33 26 21 19 19 18 18 18 19 20 19 18
0 0 0 0 0 0 0 0 0 1 2 3 3 5 6 6 7 11 16 20 23 23 25 28 27 25 25 30 37 41 42 39 34 27 23 22 22 23 23 23 22 21 20 19
0 0 0 0 0 0 0 0 0 0 1 2 3 4 7 9 10 12 15 18 21 22 23 25 26 26 25 27 34 42 44 40 32 25 20 21 23 24 25 26 25 24 23 22
0 0 0 0 0 0 0 0 0 0 0 1 1 3 6 9 12 14 14 15 19 21 22 24 26 27 27 27 33 42 46 40 30 23 18 19 21 22 24 27 28 28 28 29
0 0 0 0 0 0 0 0 0 0 0 0 0 3 7 9 11 14 13 13 17 19 20 22 26 29 29 28 32 40 45 40 30 23 20 19 19 21 23 26 29 29 29 30
0 0 0 0 0 0 0 0 0 0 0 0 1 4 7 9 10 12 12 13 16 18 18 19 25 30 31 31 33 40 44 39 30 25 23 23 23 23 24 26 28 27 26 25
0 0 0 0 0 0 0 0 0 0 0 0 4 9 10 9 10 11 12 12 15 17 17 19 24 29 32 32 35 41 42 37 30 28 27 27 27 26 26 27 28 28 25 22
0 0 0 0 0 0 0 0 0 0 0 1 6 11 13 11 11 11 12 13 16 18 18 20 23 27 29 31 35 39 41 38 34 31 31 29 29 31 29 30 31 27 24 23
0 0 0 0 0 0 0 0 0 0 0 1 4 9 13 13 11 11 12 15 18 19 19 19 21 23 26 29 33 37 41 42 39 36 34 32 32 34 34 33 31 27 24 24
0 0 0 0 0 0 0 0 0 0 0 0 2 6 12 12 10 11 13 16 18 19 18 18 19 21 25 29 33 36 40 41 40 40 40 37 35 35 34 31 28 27 27 27
0 0 0 0 0 0 0 0 0 0 0 0 2 7 11 11 10 12 15 16 17 18 18 18 21 24 28 32 36 38 38 38 39 42 43 39 36 34 31 28 27 27 28 27
0 0 0 0 0 0 0 0 0 0 0 0 1 5 8 8 9 11 15 17 19 19 20 23 27 33 36 38 40 40 38 36 38 42 41 38 36 33 30 29 29 28 26 25
0 0 0 0 0 0 0 0 0 0 0 0 0 2 4 6 7 10 13 17 20 22 23 27 34 39 40 40 41 41 38 35 37 40 40 37 36 35 31 29 29 27 25 23
0 0 0 0 0 0 0 0 0 0 0 0 0 1 3 5 6 10 13 16 19 21 24 30 35 37 37 37 39 39 37 35 36 37 37 36 35 34 32 29 28 27 25 23
0 0 0 0 0 0 0 0 0 0 1 1 2 3 5 5 7 10 13 15 17 19 24 29 31 33 34 33 35 38 38 37 35 34 32 31 31 31 30 28 27 26 25 25
0 0 0 0 0 0 0 0 1 1 1 3 4 6 6 5 6 9 12 16 19 21 24 26 27 28 29 30 33 35 36 35 32 29 26 25 26 27 27 26 25 24 24 25
0 0 0 0 0 0 0 0 0 0 1 4 6 8 6 5 7 11 15 18 22 22 23 23 24 25 26 28 30 30 29 30 28 25 23 22 24 25 25 26 26 24 23 23
0 0 0 0 0 0 0 0 0 0 1 4 7 8 7 8 11 15 18 19 20 19 20 21 22 23 25 28 27 25 25 26 26 24 23 24 24 24 24 26 27 26 23 20
0 0 0 0 0 0 0 0 0 0 1 3 7 7 8 10 12 14 17 17 17 16 17 19 19 21 24 26 23 21 22 25 26 25 25 26 26 24 24 24 25 24 20 17
0 0 0 0 0 0 0 0 1 2 2 4 5 5 6 8 9 10 13 15 15 15 16 18 19 21 23 24 22 21 22 24 25 25 26 26 25 23 22 22 20 18 16 15
0 0 0 0 0 0 0 1 2 5 5 4 4 3 3 5 6 8 11 14 15 16 17 18 19 22 24 24 23 23 24 25 24 23 23 23 21 19 18 18 16 14 14 15
0 0 0 0 0 0 0 1 3 4 4 3 3 4 4 5 6 7 10 15 16 17 18 17 18 21 25 25 24 25 26 26 24 22 21 20 18 16 14 13 12 13 14 14
0 0 1 1 1 0 0 1 1 1 1 1 3 5 5 6 5 6 10 15 17 17 17 17 17 20 21 22 22 24 26 26 23 20 18 16 14 12 10 8 9 11 13 12
0 0 1 1 1 0 0 1 0 0 1 2 3 4 5 5 5 7 11 14 15 15 15 15 16 17 16 16 18 21 25 25 20 17 15 12 10 8 7 5 5 7 8 8
0 0 0 1 0 0 0 1 0 1 2 4 4 4 3 5 6 9 12 13 14 14 14 14 14 14 14 13 15 19 24 24 18 15 13 10 8 6 5 4 3 3 3 3

GEFSCGP_con_prob3kmehi_354.txt.gz
EHI
0 0 0 0 0 0 0 0 0 1 0 1 2 5 9 14 19 20 18 16 16 17 19 21 21 17 14 10 8 7 6 5 3 2 3 4 2 1 0 0 0 1 2 3
0 0 0 0 0 0 0 0 1 1 1 1 3 5 8 13 17 19 19 18 18 19 19 19 18 16 13 10 8 8 6 5 3 2 2 3 1 0 0 0 0 1 2 2
0 0 0 0 0 0 0 1 2 2 1 0 2 4 7 10 13 16 16 17 19 21 19 18 16 15 13 10 9 7 6 4 3 3 3 3 1 0 0 0 0 1 2 2
0 0 0 0 0 0 0 1 2 2 1 0 1 3 5 7 10 12 12 13 18 22 21 18 16 15 14 12 10 8 5 4 3 3 4 5 4 2 2 1 1 0 1 1
0 0 0 0 0 0 0 1 1 1 0 0 1 2 2 4 7 9 8 10 16 21 22 18 16 17 17 15 13 10 8 5 4 4 5 7 7 5 4 4 3 2 1 0
0 0 0 0 0 0 0 0 0 0 0 0 0 1 1 2 5 7 7 8 12 17 20 20 18 18 19 18 16 14 12 8 6 6 7 9 9 8 7 7 6 4 3 2
0 0 0 0 0 0 0 0 0 0 0 0 0 0 0 1 4 6 6 5 7 13 19 21 19 18 19 19 18 17 14 11 10 9 9 10 10 10 9 8 7 6 5 4
0 0 0 0 0 0 0 0 0 0 0 0 0 0 1 3 6 7 6 5 6 12 18 20 18 17 18 20 20 19 15 13 13 13 12 12 11 10 9 9 8 7 6 6
0 0 0 0 0 0 0 0 0 0 0 0 0 1 3 5 7 7 6 7 8 11 15 16 16 16 17 20 21 21 17 16 16 16 14 12 10 10 10 10 9 8 7 7
0 0 0 0 0 0 0 0 0 0 0 0 1 2 3 5 6 7 8 10 11 10 12 14 15 16 16 18 21 22 21 19 18 17 15 12 12 12 12 11 11 10 9 9
0 0 0 0 0 0 0 0 0 0 0 0 1 2 2 3 5 7 8 9 10 10 11 12 13 14 13 14 18 21 24 23 19 19 19 17 16 15 13 13 12 11 10 11
0 0 0 0 0 0 0 0 0 0 0 0 1 1 1 3 6 7 6 6 7 8 9 10 11 11 10 11 16 22 27 27 24 22 22 22 19 15 14 14 13 12 12 12
0 0 0 0 0 0 0 1 0 0 0 0 1 1 2 5 5 4 3 4 7 10 10 10 11 12 12 12 16 22 28 29 26 23 23 22 18 14 12 12 13 14 14 14
0 0 0 0 0 0 0 0 0 0 1 1 2 3 5 5 4 3 4 6 11 14 13 11 13 14 15 15 16 20 24 25 23 21 20 19 15 12 10 10 12 14 15 15
0 0 0 0 0 0 0 0 0 1 2 3 4 5 6 5 3 4 6 10 15 16 13 12 13 14 15 14 12 14 17 17 15 15 15 15 14 13 12 11 11 13 14 13
0 0 0 0 0 0 0 0 0 1 2 3 4 5 5 5 5 6 9 12 16 15 13 13 13 13 13 13 10 11 12 11 10 11 12 13 14 15 15 14 13 13 13 12
0 0 0 0 0 0 0 0 0 0 1 1 2 3 4 5 6 7 9 13 14 12 10 11 11 12 12 12 11 11 11 10 10 10 10 11 12 14 16 16 16 15 14 14
0 0 0 0 0 0 0 0 0 0 1 1 1 2 3 4 4 5 7 9 9 7 7 8 11 13 13 13 13 14 12 10 9 8 7 8 10 13 14 16 17 17 15 14
0 0 0 0 0 0 0 0 0 0 1 2 2 3 3 3 3 4 5 6 6 6 7 9 12 14 15 15 14 14 12 8 6 5 5 6 9 12 13 13 15 16 13 12
0 0 0 0 0 0 0 0 0 0 0 1 2 2 2 2 3 3 5 6 7 8 9 12 15 16 16 16 15 12 9 5 4 4 4 5 8 11 11 11 12 13 11 10
0 0 0 0 0 0 0 0 0 0 0 0 1 1 1 1 1 3 4 6 8 10 12 14 15 14 14 14 14 11 6 3 3 4 4 5 7 9 10 9 10 11 10 9
0 0 0 0 0 0 0 0 0 0 0 0 0 0 0 0 1 2 4 6 8 11 13 13 13 11 11 11 11 9 6 4 4 5 6 6 7 8 8 8 8 9 9 8
0 0 0 0 0 0 0 0 0 0 0 0 0 1 0 1 2 3 4 6 8 11 12 12 10 8 7 8 9 9 7 6 7 7 7 6 7 7 7 7 7 8 8 7
0 0 0 0 0 0 1 1 0 0 0 0 0 0 0 1 3 5 5 7 9 10 11 10 8 7 7 8 9 10 9 9 8 8 7 6 6 6 6 6 6 6 6 6
0 0 0 0 0 1 2 1 0 0 0 0 0 0 0 1 3 5 5 7 8 9 10 8 7 7 8 8 9 10 10 9 8 7 7 6 5 4 4 4 4 4 4 4
0 0 0 0 0 1 2 1 0 0 0 1 1 1 0 1 3 4 5 7 9 10 10 9 7 7 8 8 9 10 9 8 7 6 6 6 5 4 3 3 3 3 3 3

GEFSCGP_con_prob3kmehi_360.txt.gz
EHI
0 0 0 0 0 0 0 0 0 0 0 0 2 5 5 4 6 10 9 6 6 7 8 7 5 2 1 1 1 1 2 3 4 3 1 0 0 0 0 0 0 0 0 0
0 0 0 0 0 0 0 0 0 0 0 1 2 4 4 5 7 9 8 7 7 8 9 8 4 2 1 2 2 3 4 4 4 3 2 1 0 0 0 0 0 0 0 0
0 0 0 0 0 0 0 0 0 0 0 1 2 2 3 5 7 7 6 6 7 8 8 6 4 2 3 5 5 5 6 5 4 3 3 1 0 0 0 0 0 0 0 0
0 0 0 0 0 0 0 0 0 0 0 0 1 1 1 3 4 4 4 6 7 8 7 6 5 4 4 6 6 6 6 5 4 4 4 3 2 1 1 1 0 0 0 0
0 0 0 0 0 0 0 0 0 0 0 0 0 0 0 1 1 1 3 4 6 9 8 6 5 5 5 6 6 6 5 4 4 4 5 6 5 3 3 3 2 0 0 0
0 0 0 0 0 0 0 0 0 0 0 0 0 0 0 0 0 0 1 2 4 7 8 7 6 6 5 5 6 7 6 4 4 4 5 7 7 5 5 5 4 1 0 0
0 0 0 0 0 0 0 0 0 0 0 0 0 0 0 0 0 0 0 0 1 3 6 7 7 7 5 5 6 7 7 6 5 4 5 7 6 5 5 5 4 2 1 0
0 0 0 0 0 0 0 0 0 0 0 0 0 0 0 0 0 0 0 0 0 2 4 7 8 7 6 6 7 8 8 7 6 6 6 6 5 4 4 4 4 3 3 2
0 0 0 0 0 0 0 0 0 0 0 0 0 0 0 0 1 0 0 0 0 2 5 7 8 8 7 7 9 10 9 8 7 7 6 5 4 4 4 4 5 6 6 5
0 0 0 0 0 0 0 0 0 0 0 0 0 0 0 0 1 0 0 0 0 1 4 7 7 7 7 7 9 10 10 9 8 7 6 5 5 6 6 6 6 8 8 7
0 0 0 0 0 0 0 0 0 0 0 0 0 0 0 0 1 0 0 0 0 1 3 5 5 4 5 6 8 9 9 8 8 6 5 5 6 7 9 8 7 7 8 7
0 0 0 0 0 0 0 0 0 0 0 0 0 0 0 0 1 0 0 0 0 0 1 3 4 4 4 4 6 8 8 7 6 4 3 5 7 8 9 9 8 7 7 7
0 0 0 0 0 0 0 0 0 0 0 0 0 0 0 1 1 1 0 0 0 0 1 2 4 5 6 6 7 9 8 6 4 3 3 4 6 7 8 9 9 7 6 6
0 0 0 0 0 0 0 0 0 0 0 0 0 0 0 1 2 1 0 0 0 0 1 2 4 7 8 8 9 9 8 5 4 5 5 5 5 6 8 10 9 7 6 5
0 0 0 0 0 0 0 0 0 0 0 0 0 0 0 1 1 0 0 0 0 0 1 3 5 8 10 10 10 8 6 5 6 7 7 7 6 5 6 7 9 8 5 4
0 0 0 0 0 0 0 0 0 0 0 0 0 0 0 0 0 0 0 0 0 1 2 4 6 8 10 10 9 7 5 5 7 7 7 6 5 4 4 5 8 8 5 4
0 0 0 0 0 0 0 0 0 0 0 0 0 0 0 0 0 0 0 0 1 2 2 3 5 6 7 7 6 5 4 5 6 6 4 3 3 3 3 5 7 6 5 4
0 0 0 0 0 0 0 0 0 0 0 0 0 0 0 0 0 0 0 0 1 1 1 1 3 4 5 5 5 5 5 6 7 6 3 1 1 1 3 5 5 5 5 5
0 0 0 0 0 0 0 0 0 0 0 0 0 0 1 1 0 0 0 0 0 0 0 1 3 5 7 8 8 8 7 8 8 5 2 0 0 1 2 4 5 5 6 6
0 0 0 0 0 0 0 0 0 0 0 0 0 1 2 2 1 0 0 0 0 0 0 2 4 7 9 10 10 11 10 9 7 4 1 0 1 1 2 3 5 6 6 6
0 0 0 0 0 0 0 0 0 0 0 0 0 1 2 2 1 0 0 1 1 1 2 4 6 9 9 9 10 11 11 9 5 3 1 1 2 2 3 4 6 6 6 5
0 0 0 0 0 0 0 0 0 0 0 0 0 0 1 1 0 0 1 1 2 3 4 5 7 9 9 9 9 10 10 7 3 1 2 3 3 3 4 5 6 6 6 6
0 0 0 0 0 0 0 0 0 0 0 0 0 0 0 0 0 1 2 2 2 2 3 5 7 8 9 9 9 10 8 5 2 1 3 3 4 4 5 6 6 6 6 6
0 0 0 0 0 0 0 0 0 0 0 0 1 0 0 0 1 2 3 3 3 2 2 4 5 7 8 9 9 8 7 4 3 3 4 4 5 6 6 6 6 6 6 6
0 0 0 0 0 0 0 0 0 0 0 0 0 0 1 1 2 3 3 4 4 4 3 3 4 5 7 8 8 6 4 3 4 4 5 6 6 6 6 6 6 6 6 6
0 0 0 0 0 0 0 0 0 0 0 0 0 0 1 2 3 3 3 4 4 4 3 3 4 6 7 8 7 5 2 2 4 6 6 6 6 6 6 6 5 4 4 4

GEFSCGP_con_prob3kmehi_366.txt.gz
EHI
0 0 0 0 0 0 0 0 0 0 0 0 0 1 3 4 4 4 5 7 6 3 2 3 4 4 3 3 5 9 11 13 12 8 6 6 6 4 2 3 3 3 3 2
0 0 0 0 0 0 0 0 0 0 0 0 0 0 2 4 5 5 6 6 5 4 3 3 4 5 5 6 8 11 13 14 13 10 8 7 6 4 3 3 3 3 3 3
0 0 0 0 0 0 0 0 0 0 0 0 0 0 2 4 6 7 8 7 5 4 4 4 6 7 7 8 9 11 15 18 17 14 10 9 8 6 5 4 4 3 3 3
0 0 0 0 0 0 0 0 0 0 0 0 0 0 1 4 6 8 10 10 8 6 5 6 7 8 7 6 6 11 18 22 21 17 14 12 11 9 7 6 5 4 3 3
0 0 0 0 0 0 0 0 0 0 0 0 0 0 1 3 5 7 10 10 9 7 6 7 10 10 8 5 5 11 20 26 25 21 18 16 13 11 10 10 8 5 4 4
0 0 0 0 0 0 0 0 0 0 0 0 0 0 0 1 3 4 6 7 7 6 7 9 12 13 11 7 7 12 20 26 26 23 20 17 14 11 11 12 9 6 5 6
0 0 0 0 0 0 0 0 0 0 0 0 0 0 0 0 1 2 2 3 4 5 7 10 14 15 13 11 11 15 23 27 27 25 21 17 14 11 11 10 8 6 7 9
0 0 0 0 0 0 0 0 0 0 0 0 0 0 0 0 0 1 1 2 4 5 7 11 14 14 13 14 15 19 24 27 27 25 21 18 16 14 12 11 8 7 8 10
0 0 0 0 0 0 0 0 0 0 0 0 0 0 2 2 3 3 2 3 6 8 9 13 15 15 14 14 16 18 23 27 25 20 17 15 16 17 16 15 13 10 10 10
0 0 0 0 0 0 0 0 0 0 0 0 0 0 3 6 7 6 4 4 6 7 9 14 17 17 15 14 15 16 21 24 21 15 11 11 14 17 17 17 16 14 11 10
0 0 0 0 0 0 0 0 0 0 0 0 0 0 3 7 9 9 7 5 4 4 5 9 14 16 15 15 15 17 19 21 18 14 12 11 12 14 16 16 16 16 14 12
0 0 0 0 0 0 0 0 0 0 0 0 0 0 2 6 8 9 9 6 2 1 1 4 9 12 14 15 16 17 18 17 16 15 14 12 12 14 14 15 16 16 16 16
0 0 0 0 0 0 0 0 0 0 0 0 0 1 3 5 6 7 7 5 2 0 0 3 7 11 15 18 18 17 17 17 15 14 14 14 15 15 15 15 15 15 16 17
0 0 0 0 0 0 0 0 0 0 0 0 0 1 3 5 4 4 4 3 2 1 1 3 6 11 16 20 18 16 17 18 16 15 14 16 16 14 14 15 15 14 14 15
0 0 0 0 0 0 0 0 0 0 1 0 0 1 4 5 3 1 1 2 3 3 3 4 7 12 16 18 17 16 17 18 18 17 17 16 14 11 11 13 13 13 13 13
0 0 0 0 0 0 0 0 0 0 0 0 0 1 3 4 2 0 0 2 4 5 5 6 9 12 13 15 17 18 19 19 20 19 16 14 12 10 11 12 12 12 12 11
0 0 0 0 0 0 0 0 0 0 0 0 0 0 1 1 0 0 1 3 4 5 6 7 9 11 13 15 17 19 20 20 20 18 15 12 11 12 12 12 12 10 10 10
0 0 0 0 0 0 0 0 0 0 0 0 0 0 0 0 0 1 2 3 3 4 6 7 8 11 14 16 17 18 19 19 18 18 15 12 10 11 12 12 11 10 9 10
0 0 0 0 0 0 0 0 0 0 0 0 0 0 0 0 1 2 3 3 3 5 7 8 9 11 14 17 18 18 17 17 17 17 16 14 12 12 12 11 10 9 10 10
0 0 0 0 0 0 0 0 0 0 0 0 0 0 0 0 1 3 5 5 5 6 8 9 11 12 14 16 18 18 18 17 17 16 17 17 16 15 13 11 10 9 10 10
0 0 0 0 0 0 0 0 0 1 1 0 0 0 0 0 2 5 6 7 7 7 8 10 12 14 15 17 18 18 18 18 18 17 17 19 19 17 15 12 11 10 9 9
0 0 0 0 0 0 0 0 0 1 1 0 0 0 1 2 4 6 8 7 7 6 7 9 12 13 15 17 18 17 16 17 18 18 18 19 18 16 13 12 11 10 9 9
0 0 0 0 0 0 0 0 0 1 1 0 0 1 3 5 7 8 8 7 5 5 6 7 7 9 13 16 17 16 14 14 15 17 17 16 14 12 10 9 10 9 9 8
0 0 0 0 0 0 0 0 0 0 0 0 1 2 3 5 7 8 8 7 5 5 5 5 5 6 10 12 12 12 12 12 13 14 13 10 8 7 7 8 8 8 8 8
0 0 0 0 0 0 0 0 0 0 0 1 2 3 3 5 7 8 9 8 6 6 5 6 6 7 8 10 10 9 11 12 12 11 8 5 5 6 7 7 6 6 6 6
0 0 0 0 0 0 0 0 0 0 1 2 3 3 4 6 8 9 10 9 7 6 6 7 8 8 8 9 10 10 10 11 11 9 5 4 6 8 8 6 4 3 3 3